Location: Naloco
(16.5478°S, 37.1017°E)
Time: 02:21:49
(UTC+00:00)

Cosmos 1943 Rocket - Pass Details

Date: 13 August 2020
Orbit: 813 x 843 km, 71.0° (Epoch: 23 September)

Event Time Altitude Azimuth Distance (km) Brightness Sun altitude
Rises 15:55:12 0° 330° (NNW) 3,330 6.0 -8.5°
Reaches altitude 10° 15:57:43 10° 324° (NW) 2,400 5.3 -9.0°
Maximum altitude 16:02:57 45° 252° (WSW) 1,104 3.3 -10.3°
Drops below altitude 10° 16:08:12 10° 179° (S) 2,413 4.5 -11.5°
Sets 16:10:45 0° 173° (S) 3,349 5.1 -12.1°
